Location: Maignaut
(43.8886°N, 0.4051°E)
Time: 06:19:42
(UTC+00:00)

Cosmos 1428 Rocket - Pass Details

Date: 27 February 2020
Orbit: 948 x 988 km, 82.9° (Epoch: 28 March)

Event Time Altitude Azimuth Distance (km) Brightness Sun altitude
Rises 20:24:28 0° 350° (N) 3,630 7.8 -29.5°
Reaches altitude 10° 20:26:57 10° 349° (N) 2,682 7.1 -29.9°
Maximum altitude 20:33:04 76° 265° (W) 983 4.5 -30.9°
Enters shadow 20:33:09 76° 256° (WSW) 983 4.5 -30.9°
